NOAA 17 DEB

基本信息
目录编号:
49481
目录名称:
NOAA 17 DEB
国际标识:
2002-032DK
轨道中心:
EARTH
物体状态:
已陨落(2026-04-10)
发射日期:
2002-06-24 UTC
轨道信息
数据来源: 国际轨道数据
星历时间: 2026-03-20T19:37:46+0800
半长轴: 6815.611km
偏心率: 0.0015255
轨道倾角: 98.668°
近地点辐角: 134.237°
升交点赤经: 94.387°
平近点角: 226.013°
近地点: 427.076km
远地点: 447.872km
周期: 93.329分钟
每日圈数: 15.429278
详细信息
发射场:
AFWTR
轨道高度:
LEO
数据来源:
AOE Integration Group
参考系:
TEME
时间系统:
UTC
历元类型:
SGP4
2D轨道图
3D轨道图
轨道高度分析图
轨道倾角分析图
轨道综合分析图
查看轨道综合分析图